Location: Ocean City
(38.3360°N, 75.0850°W)
Time: 16:15:51
(UTC-05:00)

Explorer 11/Cluster Stage 4 - Pass Details

Date: 21 November 2019
Orbit: 467 x 1259 km, 28.8° (Epoch: 09 December)

Event Time Altitude Azimuth Distance (km) Brightness Sun altitude
Rises 01:09:29 0° 256° (WSW) 3,927 - -64.2°
Reaches altitude 10° 01:14:33 10° 227° (SW) 3,110 - -63.4°
Maximum altitude 01:17:05 12° 208° (SSW) 3,025 - -63.0°
Drops below altitude 10° 01:19:39 10° 190° (S) 3,196 - -62.6°
Sets 01:25:07 0° 161° (SSE) 4,190 - -61.7°
